sat.trackr.live / text

‹ back to catalog

STARLINK-37264

NORAD 68729 · 2026-082B

PAYLOAD ACTIVE UNKNOWN

§ Identity

Operator
Country
US
Launch date
2026-04-15
Launch site
AFWTR
Launch vehicle
Mass (kg)
RCS (m²)

Purposes: comms

External: N2YO · Heavens-Above · Gunter

§ Orbital elements

Epoch: 2026-09-19T20:35:54.180672Z

Period
93.91 min
Inclination
97.2856°
Eccentricity
0.0002369
Mean motion
15.33450095 rev/d
Perigee alt
463.9 km
Apogee alt
467.1 km
Semi-major
6,843.7 km
B*
4.7888e-4
RAAN
124.9648°
Arg perigee
91.2060°
Mean anomaly
268.9455°
Rev number
2,420

§ Raw data

STARLINK-372641 68729U 26082B   26262.85826598  .00015420  00000+0  47888-3 0  99982 68729  97.2856 124.9648 0002369  91.2060 268.9455 15.33450095 24205

JSON: /api/v1/satellites/68729 · /tle

For live sub-satellite position, see the globe view (requires WebGL).

§ Visibility from observer

Set your observer location to see the next 7 days of passes ≥ 10°. The values pass through the URL so the page stays shareable.

No JS? Fill the form by hand. The geolocation button needs JavaScript.